Location: La Pernelle
(49.6188°N, 1.2999°W)
Time: 11:07:42
(UTC+00:00)

Meteor 2-20 - Pass Details

Date: 28 October 2021
Orbit: 939 x 958 km, 82.5° (Epoch: 08 December)

Event Time Altitude Azimuth Distance (km) Brightness Sun altitude
Rises 05:18:58 0° 191° (S) 3,604 7.4 -14.9°
Reaches altitude 10° 05:21:27 10° 192° (SSW) 2,661 6.7 -14.4°
Maximum altitude 05:27:33 81° 280° (W) 961 4.4 -13.5°
Drops below altitude 10° 05:33:40 10° 9° (N) 2,669 6.8 -12.5°
Sets 05:36:10 0° 10° (N) 3,616 7.5 -12.1°
